DELTA 1 DEB, 10207

Orbit data source: Space-Track

DELTA 1 DEB, 10207 is space debris in LEO originally from a launch on Thu, 14 Jul 1977 UTC launched from the Air Force Eastern Test Range (AFETR). Debris objects in space refer to the collection of defunct objects orbiting the Earth. Examples of debris include non-operational satellites, rocket bodies, and fragments generated from explosions, collisions, or faulty payload assembly.

Loading next visibility...
Identifier
10207, 1977-065AL
Orbit
LEO
Country
Flag of USUS
Related business
Manufacturer
Unknown
Mission
Spacecraft
Bus & Motor
Unknown
Mass
Unknown
Launch date (UTC)
1977-07-14 (49 years ago)
Launch vehicle
Unknown
Launch site
Air Force Eastern Test Range (AFETR)
Object type
Payload
Rocket body
Debris
Shape & HBR
Unknown shape, 0.1 m
Radar Cross Section
Medium (>0.1 m² and <1 m²)

Expand to show TLE details & history
Last TLE update: 10 hours ago

TLE from 10 hours ago
0 DELTA 1 DEB
1 10207U 77065AL  26263.02759522  .00002512  00000-0  46025-2 0  9995
2 10207  29.0806 175.8372 0670275 117.0202 250.0343 12.74134019266294
Epoch: 2026-09-20T00:39Z
TLE epoch observation values (Epoch: 2026-09-20T00:39:44.227Z)
Latitude
Longitude
166.97525°
Altitude
1,570.454 km
Speed
6.99 km/s
True Right ascension
11h 43m 20s
True Declination
0° 00' 00"
Sunlit
Object was in daylight at epoch
Visualization orbit readout
Latitude
Unknown
Longitude
Unknown
Altitude
Unknown
Speed
Unknown
Apparent Right ascension
Unknown
Apparent Declination
Unknown
Sunlit
N/A
Visualization observer readout
Local Sidereal Time
03:41:41
Azimuth
Unknown
Elevation
Unknown
Doppler factor
Unknown
Orbital elements
Apogee altitude
1,888.11 km
Perigee altitude
849.588 km
Semi-major axis
7,746.986 km
Eccentricity
0.06703
Inclination
29.0806°
RAAN
175.8372°
Arg. of periapsis
117.0202°
True anomaly
243.03355°
Mean anomaly
250.0343°
Eccentric anomaly
246.51211°
Mean motion
3.18305 °/min
Orbital period
113.1 mins
BSTAR
0.0046025
Loading maneuver chart data...
Computing Atmospheric mass density...
Loading historical data...
Loading historical data...
Loading historical data...
Loading historical data...
Loading historical data...
Loading historical data...
Loading historical data...

Documentation

Showing up to 5 results
|